Temp
22 22 22 21 21 21 21 21 20 20 20 20 20 20 20 20 20 19 19 19 19 19 19 19 19 19 19 19 19 19 19 19 19 19 19 19 19 19 19 19 19 19 19 18 19 19 19 19 18 19 19 19 19 19 19 19 19 18 18 18 18 19 19 20 20 20 21 22 22 22 23 24 24 23 23 24 24 23 23 23 22 23 23 23 23
22 22 22 21 21 21 21 21 21 21 21 20 20 20 20 20 20 20 19 19 19 19 19 19 19 19 19 19 19 19 19 19 19 19 19 19 18 18 19 19 18 19 18 18 18 18 18 18 18 19 19 19 19 19 19 19 19 18 18 18 18 18 19 20 20 20 21 21 22 22 23 23 23 23 23 23 23 23 23 23 23 23 23 23 23
23 22 22 21 21 21 21 21 21 21 21 21 21 21 21 21 21 20 20 20 19 19 19 19 19 19 19 19 19 19 19 19 19 19 19 18 18 18 18 18 18 18 18 18 18 18 18 18 18 18 18 19 18 18 19 19 19 18 18 18 18 18 19 20 20 20 21 22 22 22 23 23 23 23 23 23 23 23 23 23 23 22 23 23 23
23 22 22 22 21 21 21 21 21 21 21 21 21 21 22 22 21 21 20 20 20 19 19 19 19 19 19 19 19 19 19 19 19 19 19 18 18 18 18 18 18 18 18 18 18 18 18 18 18 17 17 18 18 18 19 19 19 18 18 19 18 18 19 20 20 20 22 22 22 23 23 23 23 23 23 23 23 23 23 23 23 22 22 23 23
23 23 22 22 22 21 21 21 21 21 21 21 22 22 22 22 21 21 21 20 20 20 20 19 19 19 19 19 19 19 19 19 19 18 18 18 18 18 18 17 17 17 17 17 17 17 17 18 18 17 17 17 17 18 19 19 19 19 18 18 18 18 19 20 20 20 21 22 22 22 22 23 23 22 22 23 23 23 23 22 22 22 22 23 23
23 23 22 23 22 21 21 21 21 21 21 21 21 21 21 21 21 21 21 21 21 21 20 20 20 19 19 19 19 19 19 19 19 18 18 18 17 17 17 17 17 17 16 16 16 17 17 17 17 17 17 16 16 17 19 19 20 19 18 18 18 18 18 19 20 20 21 21 21 22 22 22 22 23 22 22 23 23 23 22 22 22 22 22 22
23 22 22 23 22 22 22 22 21 21 21 21 21 21 21 21 21 21 21 21 21 21 21 20 20 20 20 20 19 19 19 19 18 18 18 17 17 17 17 16 16 16 16 16 16 16 17 16 16 16 16 15 15 16 18 19 20 20 19 18 18 18 18 19 20 21 20 20 21 21 22 22 22 23 22 22 22 22 22 22 22 22 22 22 22
22 22 22 22 22 22 22 22 22 21 21 21 21 21 21 21 21 21 21 21 21 21 21 21 20 20 20 20 19 19 19 19 18 18 17 17 17 17 17 16 16 16 16 16 16 16 16 16 15 15 15 14 14 14 16 18 19 19 19 18 18 18 18 18 20 21 20 20 20 21 21 21 22 22 22 22 22 22 22 22 22 22 21 21 21
22 22 22 22 22 22 22 21 21 21 21 21 21 21 20 20 20 21 21 21 21 21 21 20 20 20 20 20 19 19 19 19 18 18 17 17 17 17 17 16 16 16 16 15 15 15 15 15 15 14 14 14 13 14 15 16 17 17 18 18 18 18 18 18 19 21 20 20 20 20 21 21 22 22 23 22 22 22 21 21 22 22 21 21 21
22 22 22 22 22 22 21 21 21 21 21 21 21 21 20 20 21 21 21 21 21 21 20 20 20 20 20 20 20 19 19 19 18 17 17 17 17 17 17 17 16 16 16 16 15 15 15 14 14 13 13 14 13 13 14 15 15 16 16 17 17 18 18 18 19 20 20 20 21 21 21 21 21 22 22 22 22 22 22 21 22 22 22 21 21
22 22 22 22 22 22 22 21 21 21 21 21 21 20 20 20 21 21 21 21 20 20 20 20 20 20 20 20 20 19 19 19 18 17 17 17 17 16 16 16 16 16 16 16 15 15 14 13 13 13 13 13 13 13 13 14 14 15 15 16 16 17 18 18 18 20 20 20 21 21 21 21 21 22 22 22 22 22 22 22 22 22 21 21 21
23 22 22 22 22 22 22 22 22 21 21 21 21 20 20 20 21 21 21 21 20 20 20 20 20 20 20 20 20 20 19 19 18 17 17 17 17 16 16 16 16 16 16 16 15 14 13 13 13 13 13 13 13 13 13 13 13 14 14 15 15 16 16 17 18 19 20 20 20 21 21 21 21 22 22 22 23 22 22 22 21 21 21 21 21
23 23 22 22 22 22 22 22 22 21 21 21 21 21 20 21 21 21 21 21 20 20 20 20 20 20 20 20 20 20 20 19 18 17 17 17 17 16 16 16 17 17 16 16 15 14 14 13 13 13 13 13 13 13 13 13 13 13 13 14 15 16 16 16 17 18 19 19 19 19 20 21 22 22 22 22 22 22 22 22 21 21 20 20 21
23 23 23 22 22 22 22 22 22 22 21 21 21 21 20 21 21 21 21 21 21 21 21 21 20 20 20 20 20 20 20 19 18 18 17 17 17 16 16 16 17 17 16 16 15 14 14 14 13 13 13 13 13 13 13 12 12 13 13 14 14 15 16 17 17 17 18 18 19 19 19 20 21 22 22 22 22 22 23 23 22 21 20 20 21
23 23 23 23 22 22 22 22 22 22 21 21 21 21 21 21 21 21 21 21 21 21 20 20 20 20 20 20 20 20 20 19 19 18 17 17 17 16 16 16 17 17 17 16 15 15 15 14 14 14 13 13 13 13 13 12 12 12 13 14 14 14 16 17 17 17 17 18 18 19 19 20 21 21 21 21 21 21 22 22 22 21 21 21 21
23 23 23 23 23 23 22 22 22 22 21 21 21 21 21 21 21 21 21 21 21 21 21 21 21 20 20 20 20 20 20 19 19 18 18 17 17 16 17 17 17 17 17 16 15 15 15 15 15 14 14 14 13 13 13 13 12 12 13 14 15 14 15 17 18 18 18 18 18 19 19 20 21 21 21 20 20 21 22 22 21 21 20 20 21
23 23 23 23 23 23 23 22 22 22 22 21 21 21 21 21 21 21 21 21 21 21 21 21 20 20 20 20 20 20 20 20 19 19 18 18 17 17 17 17 17 17 17 16 16 16 16 15 15 15 14 14 14 14 14 13 12 12 13 13 14 15 15 16 18 18 18 18 18 18 19 20 20 20 20 20 19 20 22 22 21 20 20 19 20
24 24 23 23 23 23 23 22 22 22 22 22 21 21 21 21 21 20 20 20 20 20 20 20 19 19 19 20 20 20 20 20 20 19 18 18 17 17 17 17 18 18 17 16 16 16 16 16 16 16 15 15 15 15 14 14 13 12 12 13 14 15 16 17 19 19 19 18 18 18 18 19 20 20 20 20 20 19 21 22 22 21 21 21 21
24 24 24 24 23 23 23 22 22 22 22 22 22 22 21 20 20 19 19 19 19 19 19 19 18 18 18 18 19 19 18 19 19 19 19 18 18 17 17 17 18 18 17 17 16 16 16 16 17 16 16 15 16 15 15 14 13 12 12 13 13 14 15 17 19 20 19 18 18 18 18 18 18 19 19 20 20 19 20 22 22 22 22 22 21
24 24 24 24 23 23 22 22 22 22 22 22 22 21 20 20 19 19 19 19 19 19 19 18 18 18 17 17 18 18 18 19 20 19 19 18 18 17 16 17 17 18 17 16 16 16 16 16 16 16 16 15 16 16 15 14 13 13 13 13 13 13 13 15 18 20 19 19 18 18 18 18 18 19 19 19 20 20 20 21 21 22 22 22 21
24 24 23 23 23 22 22 22 22 22 22 22 21 20 20 20 20 19 19 19 19 19 18 18 17 17 17 17 18 17 18 19 20 19 18 18 18 17 16 16 17 17 17 16 16 16 16 16 15 15 16 15 16 16 15 15 14 13 13 13 13 13 13 14 17 19 19 19 19 19 18 18 19 19 19 18 19 20 20 20 21 22 22 22 22
24 23 23 22 22 22 22 22 22 22 21 21 20 20 20 20 20 19 19 19 18 18 18 18 17 18 18 18 18 17 17 18 19 19 18 18 18 18 17 17 16 16 15 15 15 16 16 16 15 15 15 15 15 15 16 15 14 14 14 13 13 13 13 14 16 18 19 19 19 19 19 19 19 19 20 19 19 19 20 20 21 21 21 22 22
23 22 22 22 22 22 22 21 21 21 20 20 20 20 20 19 19 19 19 19 18 18 18 18 18 18 18 18 17 17 17 17 18 18 17 17 18 18 17 17 17 16 15 15 15 16 16 16 16 15 16 16 15 15 16 15 15 14 14 14 13 13 13 14 15 16 18 19 19 19 19 19 19 19 20 20 20 20 20 21 21 21 21 21 22
22 22 22 22 22 22 21 21 21 21 20 20 20 20 20 19 19 19 18 18 18 18 18 18 18 18 18 18 17 17 16 16 17 17 17 17 17 17 17 17 17 17 16 16 16 16 16 16 16 16 16 16 15 15 16 15 15 15 15 14 13 13 13 13 14 15 16 17 18 19 19 19 19 19 19 20 20 20 20 20 20 20 20 20 20
22 22 22 22 22 21 21 21 21 20 20 20 20 20 20 19 19 19 18 19 18 18 18 18 18 18 18 17 17 16 16 16 17 17 16 16 16 17 17 17 17 17 17 17 16 16 16 17 17 16 16 16 15 15 16 16 15 15 15 14 14 14 13 13 13 14 14 14 15 16 17 18 18 19 18 19 19 19 19 19 19 19 19 19 19
22 22 22 22 21 21 21 21 21 20 20 20 20 20 19 20 19 19 19 19 19 18 18 18 18 18 18 17 16 17 17 17 16 16 15 15 15 16 16 17 17 17 17 17 17 17 17 17 16 16 16 16 15 15 15 16 16 16 15 15 14 14 14 14 14 14 13 13 13 14 14 15 17 18 19 19 19 18 18 18 18 18 18 19 19
22 22 21 21 21 20 20 20 20 20 20 20 20 20 20 20 19 19 19 19 19 19 18 18 19 19 18 18 17 17 17 17 16 14 14 14 14 15 16 16 16 17 17 17 17 17 17 17 16 16 16 15 15 15 15 15 16 15 15 15 14 14 14 14 14 14 14 14 14 14 14 14 15 16 17 18 18 18 18 18 18 18 18 18 18
22 21 21 21 20 20 20 20 20 20 20 20 20 20 20 20 20 19 19 19 18 18 18 19 18 18 18 18 17 17 17 16 14 12 12 13 14 15 15 15 16 17 17 17 17 17 17 17 17 16 16 16 15 15 15 15 15 15 15 15 15 14 14 14 14 14 14 14 14 14 14 14 14 14 15 16 17 17 18 18 18 18 18 18 18
21 21 21 21 21 20 20 20 20 20 20 20 20 19 19 18 19 18 17 17 17 17 17 17 17 17 17 17 15 15 14 13 11 11 12 13 14 14 14 14 15 16 17 16 16 17 17 18 17 17 16 16 16 15 15 15 15 14 15 15 15 14 14 14 14 14 14 14 14 14 14 14 14 14 15 15 15 16 17 17 17 18 17 17 17
21 22 22 22 21 21 21 21 20 20 20 20 20 18 17 16 17 17 15 15 15 15 15 15 14 14 15 15 13 12 11 11 10 11 12 13 13 13 13 14 15 16 16 16 16 17 17 18 17 16 16 16 15 15 15 14 14 13 14 14 14 14 14 14 14 14 14 14 14 14 14 14 14 14 14 14 14 15 16 16 16 16 16 16 16
22 22 22 21 21 20 20 21 20 19 19 19 19 19 16 14 14 14 14 13 13 13 13 13 12 12 12 12 11 10 11 11 11 11 11 12 12 12 13 14 15 15 15 16 16 16 17 17 16 15 15 15 14 14 14 14 13 12 12 12 12 13 13 13 14 14 14 14 14 14 14 14 14 14 14 14 14 14 15 15 15 15 15 15 15
21 22 21 20 19 19 19 20 19 19 19 18 19 19 17 13 11 12 12 11 12 11 11 11 11 10 11 11 11 10 11 11 11 11 11 11 12 13 13 14 14 15 15 15 15 15 15 15 15 14 14 14 13 13 13 13 12 12 11 11 11 11 11 12 13 13 14 14 14 14 14 14 14 14 14 14 14 14 14 14 14 14 14 14 14
21 21 21 20 19 18 19 19 18 18 19 18 18 18 16 14 12 11 10 10 10 10 10 11 10 10 10 10 10 10 11 11 12 12 11 11 12 13 13 13 14 14 14 14 14 14 13 13 13 13 12 12 12 12 12 12 12 11 11 10 10 10 10 11 11 12 13 13 14 14 14 14 14 14 14 14 14 14 14 14 14 15 15 14 14
19 19 19 19 19 19 19 19 18 18 18 18 17 17 16 14 13 12 11 11 11 10 10 10 10 10 10 10 10 10 11 11 12 11 11 11 12 12 12 12 13 13 12 13 13 13 12 11 11 11 11 11 11 10 10 11 11 11 11 10 10 10 10 11 11 11 11 12 13 13 13 14 14 14 14 15 15 14 14 14 15 15 15 14 14
19 18 18 18 18 18 18 18 18 18 17 17 17 17 16 15 15 14 13 13 13 12 12 11 11 10 10 9 9 10 10 10 11 11 11 11 12 12 13 13 13 12 12 12 12 12 11 11 10 10 10 10 10 10 9 9 10 10 10 10 10 10 10 10 10 11 11 11 11 12 12 13 14 14 14 14 15 14 14 14 14 14 15 14 14
19 19 18 17 18 18 17 17 17 16 16 16 15 15 15 15 15 14 14 14 14 14 14 13 12 11 10 9 9 10 10 10 10 10 10 11 11 12 13 13 12 12 11 11 10 10 9 9 9 8 8 8 9 9 9 9 9 9 10 10 10 10 10 10 10 11 11 11 11 11 12 12 13 13 14 14 14 14 14 14 14 14 15 15 15
19 19 18 18 17 17 16 16 15 15 14 14 14 14 14 13 14 14 14 14 14 15 14 13 13 12 12 10 10 10 10 10 10 10 10 9 10 11 11 11 11 10 10 9 8 8 7 7 7 6 6 7 7 7 7 8 8 8 9 9 10 9 9 9 10 10 11 11 11 11 11 12 12 12 13 13 14 14 14 14 14 14 14 15 15
17 17 17 17 16 16 15 15 14 14 13 14 13 13 13 12 12 12 13 13 13 14 13 13 12 12 11 10 10 11 11 11 11 10 10 9 9 9 9 9 9 9 8 7 7 6 6 6 6 5 5 5 5 5 6 6 7 7 7 8 9 9 9 9 9 10 11 11 11 11 11 12 12 12 12 12 13 14 14 14 14 14 14 14 14
16 15 15 15 15 15 15 14 14 13 13 13 13 12 12 11 11 11 11 12 12 12 12 12 11 10 9 9 9 11 11 11 10 10 10 9 9 8 8 8 8 7 6 6 6 6 5 5 5 4 4 4 4 4 4 5 5 5 6 7 8 8 8 8 8 9 9 10 11 11 11 11 12 12 12 12 12 13 13 14 14 14 14 14 15
16 15 14 14 14 14 14 13 13 13 13 13 12 12 12 11 11 11 11 11 11 11 11 10 10 8 7 7 8 10 10 10 9 9 8 8 8 7 7 7 7 6 6 6 6 6 6 5 5 5 4 4 4 4 4 4 4 4 5 6 6 6 7 7 7 7 8 9 9 10 10 11 11 11 11 12 12 13 13 13 14 14 14 14 14
15 14 13 13 13 13 13 13 13 12 12 13 13 13 12 11 11 11 11 11 11 11 10 9 8 7 6 7 7 8 8 8 8 8 7 7 7 6 6 5 5 5 5 5 5 6 6 6 6 5 5 4 4 4 4 4 4 4 4 5 5 5 5 6 5 5 6 7 8 9 9 10 10 11 10 10 11 12 12 12 13 13 14 14 14
14 14 13 13 13 13 13 12 12 12 12 13 13 12 12 12 12 12 12 12 12 11 9 8 7 7 6 6 7 7 7 7 7 7 6 6 6 6 5 5 4 4 5 5 5 5 5 6 6 5 5 4 4 4 4 4 4 4 4 4 4 4 5 5 5 4 5 6 7 8 8 9 10 10 10 10 10 11 11 11 11 12 12 13 14
14 13 13 13 12 12 12 12 12 13 14 14 13 12 12 13 13 13 13 12 12 11 10 9 8 7 6 6 6 7 7 7 6 6 5 5 5 5 5 4 4 4 4 5 5 5 5 5 5 5 4 4 4 4 4 4 4 4 4 4 4 3 3 4 4 4 4 5 6 7 8 9 10 10 10 10 10 10 10 10 10 10 10 11 13
13 13 13 13 12 12 13 13 13 13 13 13 13 12 12 13 13 13 12 12 11 10 10 9 8 8 7 6 7 7 7 6 6 5 5 5 5 5 5 4 4 3 3 4 4 4 4 5 4 4 4 4 4 4 4 4 4 4 4 4 3 3 2 2 3 3 3 3 5 6 8 9 9 9 9 10 10 10 10 10 9 9 9 9 11
14 14 14 14 13 13 13 13 13 13 12 12 12 12 12 12 12 12 11 11 10 9 9 8 8 8 7 7 7 7 6 6 5 5 6 6 6 6 6 6 5 4 3 3 3 3 4 4 4 4 4 4 4 4 4 3 3 3 3 3 3 2 2 2 2 2 2 3 4 5 7 8 9 8 8 9 9 10 10 9 9 9 8 8 9
15 15 15 14 14 14 13 13 13 13 13 13 13 12 12 12 12 11 10 10 9 9 9 8 8 8 8 8 8 7 7 7 6 6 5 5 5 5 5 6 7 7 5 4 4 4 4 4 4 4 4 4 4 4 4 3 3 3 3 2 2 2 2 2 2 2 2 3 3 4 6 7 8 7 7 8 8 9 9 9 9 9 8 8 8
15 15 15 14 14 13 13 13 13 12 12 12 12 12 12 11 11 10 9 9 9 9 9 9 9 9 9 9 8 8 8 8 8 7 6 5 5 5 5 6 8 8 6 5 5 5 4 4 4 4 4 4 3 3 3 3 3 3 2 1 1 2 2 2 2 2 2 3 4 4 5 6 7 7 7 7 8 8 8 9 9 8 8 8 7
15 15 14 14 14 14 13 12 12 12 12 12 11 11 11 10 10 9 9 9 9 9 9 9 9 8 9 9 9 8 8 8 8 8 8 7 6 5 5 5 6 6 5 5 4 4 4 4 4 4 4 3 3 3 3 3 2 2 1 1 1 2 3 3 3 2 2 3 4 5 5 6 6 6 6 6 7 7 8 8 8 8 8 7 7
15 15 14 14 14 14 13 13 13 12 12 11 11 11 11 11 10 10 9 9 9 9 9 9 9 8 8 9 9 8 8 8 8 8 8 7 7 6 5 5 5 5 5 5 4 4 4 4 4 4 4 3 3 3 3 2 2 1 0 1 1 2 2 3 3 3 3 3 4 5 5 5 6 6 6 6 6 6 7 7 7 7 7 7 7
14 14 14 14 14 13 13 13 12 12 12 11 11 11 11 10 10 10 10 9 9 9 9 9 9 9 8 8 8 8 8 8 7 7 7 6 6 5 5 5 5 5 5 5 4 4 4 4 4 4 3 3 3 3 3 2 1 0 1 1 1 1 2 2 3 3 3 3 3 4 5 5 5 5 5 5 6 6 6 6 6 7 7 7 7
13 13 13 13 13 13 12 12 12 12 11 11 11 11 10 10 10 10 9 9 9 8 8 8 9 9 8 8 8 7 7 7 7 7 6 6 6 5 5 5 5 5 5 5 4 4 4 4 4 3 3 3 3 3 3 2 1 1 1 1 1 1 2 2 2 2 3 3 3 4 4 4 5 5 4 4 5 5 5 5 6 6 7 7 7
Height
819 820 820 820 820 820 820 820 819 820 819 819 819 818 818 817 816 816 814 814 813 812 811 810 809 808 807 806 805 804 803 802 801 800 799 798 797 795 794 792 790 788 787 785 782 780 777 775 773 771 770 769 767 765 764 764 763 764 765 766 766 766 765 764 762 759 759 761 763 764 764 764 764 764 765 766 767 768 769 770 770 770 770 771 772
818 818 818 818 818 818 818 818 818 818 818 818 817 817 816 816 815 814 813 812 811 810 809 809 808 807 806 805 804 803 802 801 800 799 798 797 796 794 793 791 789 787 785 783 781 778 775 772 769 767 766 764 762 761 760 759 759 759 760 760 759 760 760 759 757 757 756 758 759 760 761 761 761 761 762 763 764 765 765 766 767 767 767 767 768
816 817 817 817 817 817 817 817 817 817 816 816 815 815 814 813 813 812 811 811 810 809 808 807 807 806 805 804 803 802 801 799 798 797 796 796 794 793 792 790 788 786 783 781 779 776 773 770 767 764 762 760 757 755 755 755 754 753 754 755 754 756 756 753 753 753 752 753 755 756 756 757 757 757 758 759 761 762 762 762 763 764 764 763 765
814 815 815 815 816 816 816 815 815 815 815 814 814 813 812 811 811 810 810 809 808 807 806 805 805 804 803 802 801 801 800 798 797 796 795 794 793 792 790 788 787 784 782 779 776 773 770 767 764 761 758 755 753 751 749 749 749 748 749 750 750 751 750 748 748 749 748 748 750 751 752 752 752 753 755 756 757 758 758 759 760 761 761 761 762
813 813 813 814 814 814 814 814 814 813 813 813 812 811 811 810 809 809 808 807 806 805 804 803 803 802 801 800 799 799 798 797 796 795 794 792 791 790 788 786 785 782 780 777 773 770 767 764 761 758 755 752 749 746 744 743 743 743 743 744 744 744 745 743 742 744 745 745 745 746 748 748 749 750 751 752 754 755 755 756 756 757 758 759 759
811 811 812 812 812 813 813 812 812 812 812 811 810 810 809 809 808 807 806 805 804 803 802 801 800 800 799 798 797 796 796 795 794 793 792 791 789 788 786 784 782 780 777 774 771 768 765 762 759 756 753 750 746 743 740 738 738 737 738 739 738 738 739 738 737 739 741 741 742 743 743 744 745 746 747 748 750 751 751 752 753 754 755 756 756
809 810 810 810 810 811 811 811 811 810 810 810 809 809 808 807 806 805 805 803 802 801 800 799 798 797 797 796 795 794 793 793 792 791 790 789 787 786 784 782 780 778 775 772 769 766 763 760 757 754 751 748 744 740 736 734 733 732 733 734 733 732 734 733 732 733 736 737 738 739 739 740 740 741 742 744 746 747 748 749 749 749 750 751 752
807 808 808 808 809 809 809 809 809 809 808 808 808 807 806 806 805 804 803 802 800 799 798 797 796 795 794 794 793 792 791 791 790 789 788 787 786 784 782 781 778 776 773 770 767 764 761 758 756 753 749 746 743 738 733 730 729 728 728 729 728 728 729 730 728 728 731 732 734 734 735 736 736 736 738 740 741 742 743 744 745 745 746 748 749
805 806 806 806 807 807 807 807 807 807 807 806 806 805 804 804 803 802 801 800 798 797 796 795 794 793 792 791 791 790 790 789 788 787 786 785 784 782 780 779 777 774 771 768 766 763 760 757 754 751 747 743 740 735 730 727 725 725 724 724 725 725 726 728 725 723 725 727 728 730 731 731 730 731 733 733 735 737 739 741 741 742 743 745 746
803 804 804 804 805 805 805 805 805 805 805 804 804 803 803 802 801 800 799 798 796 795 794 793 792 791 790 789 789 788 787 787 786 785 784 783 782 781 779 777 775 773 770 768 765 762 759 756 752 748 745 741 737 732 728 725 724 723 723 722 722 722 723 723 721 720 720 721 722 724 725 725 726 727 727 728 730 732 735 736 738 739 740 742 743
801 801 802 802 803 803 803 803 803 803 803 802 802 801 801 800 799 798 797 796 794 793 792 791 790 789 788 787 787 786 785 784 783 782 782 781 780 779 777 775 773 772 770 767 764 761 757 754 750 747 744 740 735 731 727 725 723 721 720 718 718 718 718 718 716 715 716 716 717 718 719 720 722 723 723 724 726 728 729 732 734 735 736 737 738
798 799 799 800 801 801 801 801 801 801 801 800 800 799 799 798 797 796 794 793 792 791 790 789 788 787 786 785 785 784 783 782 781 780 780 779 778 777 775 774 772 770 769 766 764 760 756 753 750 747 744 740 735 731 726 723 720 718 716 714 713 713 713 714 713 711 711 711 713 714 715 716 717 718 719 720 721 723 725 727 728 730 731 732 733
796 796 797 798 798 798 799 799 799 799 798 798 798 796 796 796 794 793 792 791 790 789 788 787 786 785 784 783 782 781 780 779 778 778 778 776 776 774 773 772 770 769 767 765 762 759 755 752 749 746 743 739 736 732 727 722 718 714 712 710 707 706 706 708 708 707 708 708 709 710 711 712 711 713 714 715 716 718 720 722 723 725 727 727 728
793 794 795 796 796 796 797 796 796 796 796 796 795 794 794 793 792 791 790 789 788 787 786 785 783 783 782 781 780 778 778 777 776 776 775 774 773 772 771 770 768 767 765 763 761 758 755 752 748 745 742 738 735 731 727 722 717 712 709 706 704 701 700 700 700 702 703 704 703 704 707 708 707 707 709 710 711 713 714 716 718 719 722 722 723
791 792 792 793 793 794 794 793 794 793 793 793 793 792 792 791 790 789 788 787 786 785 784 782 781 780 779 778 777 776 775 775 774 773 772 771 771 770 769 767 766 764 763 761 759 756 753 750 747 743 739 736 733 730 726 722 717 712 707 703 700 697 694 692 692 693 695 697 697 698 701 703 704 704 705 706 707 709 710 712 714 716 718 718 719
788 789 790 790 791 791 791 791 791 791 791 791 791 790 790 789 788 787 786 785 784 783 782 780 779 778 777 777 775 774 773 772 771 770 770 769 768 767 766 765 763 762 760 759 756 754 751 748 745 741 738 734 731 729 726 722 717 712 706 700 696 692 687 685 685 686 687 689 691 693 695 698 699 700 701 703 704 706 707 709 711 713 715 717 717
785 786 787 787 788 788 788 789 788 788 789 788 788 788 788 787 786 786 785 783 782 781 780 779 778 777 776 775 774 772 771 770 769 768 767 766 766 765 764 763 761 759 758 756 754 752 749 746 743 739 736 733 730 727 724 721 717 712 705 698 693 687 681 678 678 679 680 682 684 687 690 692 695 697 698 699 701 702 703 705 707 710 714 716 717
782 783 784 785 785 786 786 786 786 786 786 786 785 785 785 785 785 785 784 783 782 781 779 779 779 778 776 775 772 771 769 767 766 766 765 764 763 762 762 760 759 757 755 753 752 749 747 744 741 738 735 732 729 725 722 719 715 710 704 697 691 684 677 674 672 672 674 677 679 682 685 687 691 693 694 696 698 700 700 700 703 706 710 712 713
779 780 781 781 782 783 783 784 784 783 783 783 783 783 783 784 784 784 783 782 782 781 780 779 779 778 777 775 772 770 768 766 764 763 762 762 761 760 760 758 756 755 753 751 749 747 745 742 739 737 735 731 728 724 721 718 714 708 703 697 690 682 675 670 667 667 668 671 675 678 680 683 686 688 690 692 694 696 696 697 700 702 705 707 708
776 777 778 778 780 780 781 781 781 781 781 781 780 780 780 781 781 781 781 781 780 779 778 778 776 775 775 774 772 770 767 763 762 761 761 760 759 758 758 757 754 753 751 749 747 744 742 740 737 735 733 730 727 723 720 717 713 707 702 696 689 680 672 666 663 662 663 665 669 672 675 678 680 683 686 688 690 691 693 695 697 698 700 702 704
773 774 775 776 777 778 778 778 778 778 779 778 778 778 778 778 779 778 778 778 777 777 776 775 774 772 771 770 769 768 766 763 761 760 759 759 758 757 756 755 753 752 749 748 745 743 740 738 735 733 731 729 726 722 719 716 712 707 701 695 687 678 668 660 658 659 660 661 664 667 670 673 675 677 680 683 685 687 689 691 693 695 696 697 700
771 772 773 774 775 775 775 776 776 776 776 776 777 776 776 776 776 776 776 776 775 774 774 773 772 770 769 767 766 765 764 762 760 759 758 757 756 756 754 753 752 750 748 746 744 741 739 736 733 731 730 727 725 722 718 715 710 706 701 693 685 676 665 657 656 657 658 658 660 663 665 668 670 672 674 677 680 683 685 687 689 691 692 694 696
769 770 771 772 773 773 774 774 774 774 774 774 775 774 774 774 774 774 774 773 773 772 771 771 770 768 766 766 764 763 763 761 758 757 757 756 755 754 753 752 750 749 747 745 742 740 737 735 732 730 728 726 724 721 718 714 710 706 701 693 685 677 666 658 656 656 656 657 658 659 661 663 665 667 669 672 675 678 681 683 685 687 689 691 693
767 768 769 771 771 771 772 772 772 772 772 772 772 772 771 772 771 772 772 772 771 771 770 769 768 766 765 765 763 762 763 761 758 756 755 754 754 753 752 750 749 747 745 743 741 739 736 734 731 729 727 726 723 721 719 715 710 706 701 694 687 678 670 663 661 658 656 656 657 657 658 660 662 663 665 668 672 675 677 679 682 684 687 689 691
764 766 768 769 769 769 770 770 770 770 770 770 769 769 769 769 769 770 770 770 770 769 768 767 766 765 765 764 762 761 761 761 758 755 754 754 752 751 750 749 748 746 744 742 740 738 736 733 730 728 726 725 723 720 718 715 711 706 701 695 689 682 675 671 668 665 661 661 660 658 657 657 658 659 661 666 669 671 673 677 680 682 685 687 689
762 765 767 767 767 768 768 768 769 769 769 768 767 767 767 767 767 768 768 767 767 767 766 765 764 763 763 763 761 760 759 759 758 756 755 753 751 750 748 747 746 745 743 741 739 736 734 732 730 727 726 724 722 720 717 715 711 707 702 698 692 687 682 679 676 672 669 666 665 663 660 657 656 657 659 663 665 667 670 674 678 680 682 685 687
762 763 764 764 765 766 766 767 768 767 767 766 765 765 765 765 766 766 765 765 765 765 765 764 763 762 761 761 761 759 758 759 758 756 754 752 750 748 747 746 745 744 742 740 737 735 733 731 729 727 725 724 722 720 717 714 711 708 705 701 697 693 689 686 682 678 674 671 669 668 664 659 658 658 659 661 662 665 668 673 676 678 680 683 685
760 761 762 763 764 765 765 765 766 765 765 764 763 763 763 763 763 763 763 763 763 763 763 762 762 761 760 760 760 759 758 758 757 755 753 751 749 747 746 745 744 743 741 739 736 734 732 730 729 727 725 723 722 719 717 715 712 710 707 704 701 697 693 690 686 681 678 675 673 671 668 664 663 663 662 661 662 664 667 671 675 677 679 682 683
759 760 760 761 762 763 763 763 763 763 762 762 762 761 761 762 762 761 761 761 762 762 762 762 762 761 761 760 760 759 759 759 757 755 753 750 748 746 745 744 743 742 740 738 736 733 731 730 729 727 725 724 722 720 718 715 713 711 708 705 703 700 696 693 688 685 682 679 677 676 673 670 669 669 668 666 666 666 667 670 673 675 678 680 682
757 757 758 759 759 760 760 760 761 761 761 760 760 760 760 761 761 760 760 760 760 761 761 761 761 761 761 761 761 760 760 759 756 754 752 749 747 746 745 744 742 741 740 738 736 733 731 730 729 728 726 725 724 722 720 718 715 713 710 707 705 702 699 696 693 690 687 685 684 683 679 675 675 675 674 672 671 670 671 672 673 675 677 679 681
755 755 756 757 758 758 759 759 759 759 759 759 759 759 759 760 761 760 760 760 760 760 760 760 760 760 761 761 760 760 759 758 755 754 751 749 748 746 745 743 742 741 739 737 736 734 732 731 731 730 729 727 726 725 723 720 718 716 712 709 707 704 702 700 697 693 691 690 690 688 685 683 682 682 680 679 678 677 677 677 677 679 680 681 683
754 754 755 756 757 758 759 758 757 758 757 757 757 757 758 760 761 761 761 760 760 760 760 760 760 760 760 760 760 759 758 756 754 753 751 750 748 746 745 744 742 741 739 738 737 736 735 734 733 732 731 730 728 727 725 723 721 719 716 713 710 708 706 703 700 697 696 695 694 693 691 689 688 687 685 684 683 684 684 684 685 686 686 687 688
753 753 755 756 756 757 757 756 756 756 756 756 756 756 757 759 759 760 761 761 761 762 761 761 761 760 760 759 758 758 757 756 754 752 751 750 748 746 745 744 742 741 739 739 738 738 738 737 736 735 734 733 731 730 728 726 724 722 720 717 715 712 709 707 703 701 700 700 700 698 696 694 692 691 690 689 688 689 690 690 691 692 692 692 693
753 753 754 755 755 756 755 755 755 754 754 755 755 755 756 757 756 758 761 761 761 762 762 761 761 760 759 758 758 758 757 756 754 752 750 749 749 747 746 745 744 742 741 741 741 741 740 740 739 738 737 736 735 733 731 729 727 725 723 721 718 715 712 709 707 705 705 704 704 703 701 699 697 696 695 694 694 695 695 695 695 695 696 696 696
753 753 754 754 754 754 754 754 754 754 754 755 755 755 755 755 755 757 758 759 759 760 760 760 760 759 759 758 758 758 757 756 755 753 751 750 749 748 747 746 745 744 744 744 744 744 743 743 742 741 740 739 738 736 734 732 730 728 726 724 721 719 716 713 711 710 709 708 707 707 705 704 702 702 701 700 699 700 699 699 699 699 699 700 700
752 752 752 753 753 753 754 754 754 754 754 755 755 756 756 756 756 756 757 758 758 758 758 759 759 758 758 759 759 759 758 757 756 754 752 751 750 749 749 748 748 747 747 747 747 747 747 746 745 744 743 742 740 739 737 735 733 731 729 727 725 722 720 717 715 714 713 712 711 711 709 708 707 707 706 704 704 704 704 704 704 704 704 704 704
751 751 751 752 753 753 754 754 754 754 755 755 756 756 757 757 756 756 757 758 758 757 758 759 759 758 759 760 760 760 759 758 757 756 754 752 751 751 752 752 752 752 752 751 751 750 749 749 748 746 745 744 743 741 740 738 736 734 732 730 728 726 724 722 720 719 718 717 716 715 713 713 712 711 709 708 708 708 707 707 707 707 708 708 708
751 751 751 752 753 753 754 754 755 755 755 756 756 757 757 758 757 758 759 760 759 758 759 759 760 760 761 761 761 760 759 759 758 757 757 755 754 754 755 755 756 756 755 755 754 753 752 751 750 749 747 746 745 744 742 740 739 737 735 733 731 729 727 725 724 722 721 721 720 719 718 717 716 714 713 712 712 711 710 710 710 710 710 710 711
752 752 753 753 753 754 754 754 755 756 756 756 757 758 759 758 758 759 760 761 760 760 760 760 761 763 763 763 762 760 760 760 760 760 759 759 758 758 758 758 758 758 758 758 757 756 755 754 752 751 749 748 747 746 744 743 742 740 738 736 734 732 730 728 727 726 725 724 723 722 721 720 719 718 717 716 715 714 713 712 712 712 712 712 712
753 753 754 754 754 754 755 755 756 756 757 757 758 759 760 759 758 759 760 761 761 761 762 763 764 765 765 764 763 762 761 762 762 762 762 762 761 761 761 761 761 761 760 760 759 758 757 756 755 753 752 750 749 748 747 745 744 743 741 740 738 736 734 732 730 729 728 728 727 726 725 723 722 721 719 719 718 717 716 715 714 713 713 713 713
753 754 754 754 755 755 756 756 757 757 758 759 759 760 760 760 759 759 761 761 762 762 764 765 766 766 766 765 764 764 764 764 764 764 764 764 764 764 763 763 763 763 762 762 761 760 760 758 757 756 755 753 752 751 749 748 746 745 744 743 741 739 738 736 734 733 731 731 730 729 728 727 725 724 722 721 720 719 718 717 716 715 715 714 714
754 755 755 755 756 756 757 757 758 759 759 759 759 760 761 760 759 760 761 762 762 763 765 766 767 767 767 767 766 765 766 766 766 766 766 766 766 766 765 765 765 764 764 764 763 762 761 760 759 758 757 756 755 754 752 751 749 748 747 746 744 743 741 740 738 737 735 734 733 731 730 729 728 727 726 725 723 722 721 720 719 718 717 716 715
754 755 755 756 757 757 758 758 758 758 758 758 759 760 760 759 760 760 761 762 763 764 765 767 768 768 768 768 767 767 767 768 768 768 768 768 768 768 767 767 766 766 765 765 764 763 763 762 761 760 759 758 757 756 755 754 753 751 750 748 747 746 744 743 742 740 739 738 736 735 734 733 731 730 729 728 726 725 724 723 722 720 719 718 717
755 756 756 756 757 758 758 758 758 759 759 759 760 760 760 760 760 760 761 762 763 764 765 767 767 768 768 769 768 768 769 769 769 770 769 770 769 769 769 769 768 767 767 766 765 764 763 763 762 761 761 760 759 758 757 757 756 754 753 752 750 748 747 746 745 744 742 741 740 739 738 736 735 733 732 731 729 728 727 727 726 724 722 721 720
755 755 755 756 756 758 758 759 759 759 759 760 760 760 760 761 761 761 762 763 764 765 767 767 768 768 769 769 769 770 770 770 771 771 771 770 770 770 770 770 769 769 768 767 766 765 764 764 763 763 762 761 761 760 759 758 758 757 756 754 753 752 750 749 748 746 745 744 743 741 741 739 738 737 735 734 733 732 730 729 729 727 725 724 723
754 755 755 755 757 757 758 758 759 759 759 759 759 760 760 761 761 762 763 764 765 766 767 767 768 769 769 769 770 770 770 770 771 771 771 771 771 771 771 770 769 770 770 769 767 766 766 765 764 764 763 762 762 761 761 760 759 759 758 756 755 754 752 751 750 748 747 746 745 744 743 742 740 739 738 736 735 734 733 732 731 730 729 727 726
755 755 755 756 757 757 758 758 758 759 759 759 759 760 760 761 762 763 764 765 765 766 766 767 768 768 768 769 769 770 770 770 770 770 771 771 771 771 771 771 770 770 770 770 769 768 767 766 765 765 764 763 763 762 762 761 761 760 759 757 756 754 753 751 750 750 749 748 747 746 745 743 742 741 740 738 737 736 735 734 733 732 731 730 729
755 756 756 756 757 757 758 758 758 759 759 759 760 760 761 761 763 764 765 765 765 766 766 768 768 769 769 769 769 769 769 769 769 769 770 770 771 771 771 771 770 770 770 770 769 768 768 767 767 766 765 765 764 764 763 763 762 761 760 759 757 755 754 752 751 750 749 748 748 748 746 745 744 743 741 740 739 738 737 736 735 734 733 732 731
755 755 756 756 757 757 758 758 758 758 759 759 760 760 761 761 762 763 764 765 765 766 767 767 768 769 769 769 769 769 769 769 770 770 770 770 771 771 771 771 771 770 770 770 769 769 768 768 768 767 766 766 765 765 764 764 763 762 761 759 758 756 755 753 752 750 749 749 749 749 748 747 746 745 743 742 741 740 739 738 737 736 735 734 733
756 755 756 756 757 757 758 758 758 758 759 759 759 760 761 761 762 762 764 764 765 766 767 767 767 768 768 769 769 769 770 770 770 770 770 770 771 771 770 771 770 770 770 770 769 769 769 769 768 768 767 767 767 766 766 765 764 763 761 759 758 757 756 754 753 751 750 749 750 750 749 748 747 746 745 744 743 742 741 740 738 737 737 736 735
756 756 756 757 757 758 758 759 759 759 759 759 759 760 761 761 762 763 764 764 765 766 767 767 767 767 768 769 769 770 770 770 770 770 770 771 771 770 770 770 770 770 770 770 769 769 769 769 768 768 768 767 767 767 767 765 764 763 762 760 759 757 756 755 754 753 751 750 751 751 750 749 748 747 746 745 745 744 743 742 741 739 738 737 737
Wind_Speed
5 5 5 5 6 5 5 5 5 6 6 6 7 7 7 8 8 8 9 9 10 11 12 12 13 14 14 15 15 15 15 14 14 12 12 12 13 14 15 15 17 18 19 21 22 23 24 25 26 27 26 26 27 28 25 25 29 31 32 33 33 30 26 23 17 13 19 23 22 24 22 18 17 16 17 18 16 17 19 19 18 18 17 17 18
7 6 6 6 7 6 6 6 6 7 7 7 8 8 8 8 9 9 9 10 10 11 12 13 13 14 15 15 14 14 14 14 12 11 11 12 13 14 15 16 18 19 21 21 22 25 27 28 28 29 28 27 29 31 29 25 26 29 32 32 36 38 32 26 21 15 18 23 23 25 26 22 20 18 17 18 18 17 17 19 20 18 18 18 17
7 7 7 7 7 7 7 7 7 7 8 8 8 8 8 8 9 9 10 11 11 12 13 13 14 14 14 14 13 13 13 13 13 11 11 12 14 15 16 17 18 19 22 23 23 24 26 27 28 29 30 29 30 32 32 29 26 29 34 33 34 39 35 28 26 22 20 23 23 24 24 23 22 21 19 19 18 17 17 19 20 19 19 21 19
8 7 7 8 8 8 8 7 8 8 8 8 8 8 9 9 9 10 11 12 12 13 13 14 14 14 13 13 13 13 13 13 13 12 11 12 13 14 15 16 18 20 22 23 24 24 24 26 27 28 30 32 31 30 28 27 25 27 32 34 36 39 34 27 28 26 22 22 22 23 23 22 21 21 20 19 19 19 18 19 19 20 23 23 21
8 8 8 8 8 9 9 8 8 9 8 8 8 9 9 9 10 11 11 12 13 13 14 14 14 13 13 13 13 13 13 13 12 11 11 11 12 13 14 15 17 20 22 24 25 25 25 26 27 27 28 31 35 33 28 25 25 25 28 32 37 40 34 26 24 24 22 21 21 21 22 22 20 19 19 19 19 19 18 18 19 21 24 23 20
8 8 8 9 9 9 9 9 9 9 9 8 8 9 10 10 11 11 12 13 13 14 14 14 14 14 13 13 13 13 13 12 12 11 10 10 11 12 13 15 17 19 22 24 25 25 25 25 26 28 28 28 34 37 30 26 26 26 26 30 36 40 38 30 23 21 21 22 22 21 21 22 21 19 19 20 20 19 17 17 19 20 22 21 19
9 9 9 9 9 9 9 9 9 9 9 8 9 10 10 11 12 13 13 14 14 14 15 15 15 14 14 13 14 13 12 12 11 10 9 9 11 12 12 14 16 18 21 24 24 25 25 25 26 27 28 28 33 38 34 29 26 26 26 29 33 38 38 31 24 21 20 21 22 23 21 21 21 20 18 18 19 19 17 18 20 21 20 20 22
10 10 9 9 10 10 10 9 9 9 9 9 10 11 11 12 13 13 14 15 15 15 15 16 15 15 14 13 13 12 11 11 10 9 8 9 10 11 12 14 16 19 21 23 23 24 24 25 26 26 28 30 32 34 33 28 25 26 29 30 31 34 35 31 25 21 21 20 20 22 22 22 22 21 18 17 18 19 19 19 20 19 18 19 22
11 10 10 10 10 10 10 9 9 9 9 9 10 12 12 13 13 14 14 15 15 15 15 15 15 15 14 12 11 11 10 10 9 9 8 8 9 11 13 14 16 18 20 22 23 24 24 23 25 27 28 30 30 29 27 26 26 27 29 28 27 28 31 32 27 21 21 21 19 20 21 21 22 22 20 19 19 19 20 20 20 18 17 18 21
12 11 11 11 11 10 10 10 10 10 10 11 11 12 13 13 13 13 14 15 15 15 14 14 14 13 13 12 10 10 9 9 10 11 9 9 10 12 13 14 15 16 18 21 23 24 24 23 26 29 28 27 29 27 23 21 23 26 29 30 32 31 29 30 29 23 21 21 22 22 19 18 22 23 22 21 21 20 19 20 21 19 16 14 17
12 12 11 11 11 11 11 11 11 11 11 12 13 13 13 13 12 13 14 14 14 13 13 13 13 12 12 11 10 9 9 10 12 12 9 9 11 12 13 14 15 15 16 19 23 24 24 24 27 29 26 26 29 27 24 25 24 22 24 27 33 36 33 29 27 24 21 21 22 23 21 20 23 25 24 23 22 22 21 20 20 18 15 12 13
13 12 12 11 11 11 12 12 12 13 13 13 14 14 13 13 13 14 15 14 13 13 13 13 13 11 10 10 9 9 9 11 14 13 10 10 12 13 14 13 13 15 15 17 20 22 23 24 26 26 25 26 27 24 25 29 29 26 25 24 28 34 38 37 32 25 22 22 21 22 23 24 25 24 24 24 22 22 23 21 21 21 18 16 15
13 12 12 12 12 12 12 12 13 14 13 14 15 14 13 13 14 14 14 13 13 13 13 13 12 11 10 9 9 10 10 11 14 14 12 12 13 13 13 13 12 14 14 15 17 19 22 25 26 26 25 26 25 24 27 30 30 29 28 25 26 30 36 42 43 36 30 26 24 25 25 25 25 24 25 24 22 21 22 20 21 23 20 18 22
12 12 12 12 12 12 12 13 13 14 13 14 14 13 12 13 14 13 13 12 13 13 13 13 12 11 11 10 10 10 10 11 13 14 13 12 13 13 13 13 12 13 13 14 17 19 21 24 26 26 27 26 24 26 30 31 30 29 28 26 26 28 32 38 44 47 44 37 32 33 33 30 28 27 27 28 25 22 22 20 20 23 25 27 31
13 12 12 12 11 12 12 12 13 13 13 13 12 12 12 12 12 12 11 12 12 13 13 13 13 12 12 11 12 12 11 12 13 14 14 13 14 14 14 13 12 12 13 14 18 22 23 24 25 27 29 27 25 27 33 35 32 29 29 29 28 27 30 34 38 44 46 44 40 39 38 36 32 27 27 31 30 23 20 19 19 22 24 27 29
13 13 13 12 11 11 11 12 12 12 12 12 12 11 11 11 11 11 11 12 12 12 13 13 13 13 12 12 13 13 12 12 13 13 14 14 15 15 14 13 13 13 13 15 19 23 24 25 25 26 29 29 27 29 33 35 33 30 29 32 31 29 30 34 38 40 42 43 43 41 40 37 34 30 29 31 29 24 19 17 18 17 14 13 16
14 13 13 12 11 10 10 11 12 12 12 12 11 10 11 11 11 10 10 11 12 12 13 13 13 13 13 13 14 14 13 13 13 14 14 14 16 16 15 13 14 14 13 15 20 23 24 26 26 26 28 29 30 32 34 34 33 30 30 32 33 30 29 31 35 40 43 43 43 44 44 41 37 33 33 33 28 23 21 19 18 18 13 9 11
15 14 13 11 10 10 10 11 11 11 11 11 11 11 11 11 11 10 11 12 13 13 14 15 17 17 16 16 16 16 16 15 13 13 13 14 15 17 16 15 15 15 13 15 21 24 24 25 25 25 28 29 30 33 35 36 35 33 32 34 33 30 27 27 30 36 42 44 45 45 45 46 42 36 33 34 31 26 23 21 19 19 17 14 13
15 14 12 10 10 9 10 10 10 10 10 11 11 10 9 9 10 10 11 12 12 13 14 15 18 19 20 20 18 17 18 16 13 12 12 12 14 16 16 15 15 16 15 17 22 24 23 23 25 26 27 27 28 31 32 34 36 34 34 35 33 30 27 25 28 30 34 38 41 43 43 43 45 42 36 34 34 33 29 24 21 20 18 16 15
14 13 11 10 9 9 9 10 10 10 11 11 10 8 6 7 7 6 7 9 9 10 12 12 14 18 21 23 22 21 19 15 12 12 12 11 12 15 15 14 15 16 16 16 21 23 21 22 25 26 25 23 24 28 30 31 33 32 33 35 35 34 31 25 27 27 28 31 32 34 35 36 39 43 41 35 34 36 34 28 24 23 21 20 18
14 13 10 9 9 8 9 9 9 10 11 10 9 7 6 7 6 4 6 7 7 8 9 10 13 17 19 20 22 23 21 15 11 12 12 10 11 12 12 12 13 15 15 16 18 20 21 22 23 22 23 21 22 26 29 30 30 30 34 37 38 39 32 20 26 26 23 25 28 29 29 29 32 36 39 37 35 36 35 31 27 25 24 24 20
13 11 9 9 8 7 8 9 9 9 9 9 8 7 6 7 7 6 7 6 6 8 8 9 12 14 15 16 18 22 22 16 11 12 12 10 9 9 9 11 12 13 14 16 17 18 19 21 22 21 22 22 21 23 26 29 30 31 35 38 39 40 34 14 16 25 24 21 23 25 26 27 28 31 34 36 37 37 36 33 30 26 26 26 22
10 8 8 8 7 6 7 8 8 8 8 9 9 8 8 9 9 8 8 7 7 8 9 10 11 12 13 15 18 24 23 14 8 10 11 10 9 8 9 11 12 12 13 14 16 17 17 19 21 21 20 20 19 20 23 27 30 31 34 38 37 37 37 31 14 12 23 24 21 20 22 24 25 26 29 32 33 34 33 32 30 27 25 27 25
8 7 7 7 6 5 5 6 7 8 8 9 10 10 10 9 9 8 8 8 9 9 9 10 11 12 13 13 18 24 24 16 10 9 10 11 10 9 9 10 12 12 14 15 16 16 17 18 20 18 18 18 17 17 19 23 27 30 33 36 36 35 36 37 32 21 7 9 16 18 22 25 24 23 28 30 28 27 28 28 29 27 26 27 25
8 7 7 6 4 3 4 5 6 6 7 8 9 10 9 9 9 8 8 8 9 10 11 11 11 12 12 12 16 20 19 15 11 8 9 13 13 10 10 10 11 12 15 16 16 16 16 17 17 15 14 15 15 15 17 19 24 28 31 33 34 35 35 33 31 30 28 20 11 6 7 17 25 29 33 31 25 24 28 29 29 29 29 27 24
8 7 6 4 3 2 3 5 5 5 6 8 9 9 9 9 9 8 9 10 10 10 10 11 12 11 10 10 14 15 15 13 9 8 11 15 13 11 11 10 10 13 15 15 16 17 16 15 14 12 11 12 14 15 16 17 20 25 29 30 31 31 32 31 28 25 24 25 25 24 19 9 6 21 30 30 26 27 29 27 25 27 29 26 22
8 6 5 4 3 2 2 3 4 6 7 7 8 9 9 9 10 10 10 10 10 9 10 11 11 11 10 10 12 12 13 12 11 13 17 18 15 13 12 9 10 13 13 13 16 17 16 14 13 11 11 12 14 15 16 16 19 23 25 27 28 28 28 28 28 27 25 24 25 25 26 26 19 6 9 18 24 28 29 26 22 24 27 25 20
7 6 5 4 4 3 3 3 5 6 6 7 8 9 8 9 10 9 8 8 8 9 10 10 9 9 10 11 12 12 11 11 13 17 20 20 18 15 12 10 10 11 12 14 16 17 14 11 10 10 10 11 14 16 17 19 21 23 23 24 25 27 27 27 28 28 28 28 28 27 27 29 28 23 16 9 7 16 25 27 24 22 22 20 16
5 5 5 5 5 5 5 6 7 7 7 8 8 7 7 9 10 7 6 7 9 9 9 8 7 7 8 9 10 9 9 11 14 18 20 17 14 12 10 10 10 10 12 13 14 14 12 9 8 10 11 11 13 14 16 19 22 22 22 22 24 25 26 27 28 29 29 29 29 27 27 28 28 26 24 20 15 9 14 19 20 19 19 15 12
5 6 7 7 7 7 8 9 8 7 9 10 8 5 6 9 10 7 6 7 8 7 6 4 3 4 4 5 5 7 8 11 15 17 16 12 8 7 9 10 10 10 11 11 10 11 11 9 10 11 11 12 13 13 15 17 20 20 20 21 22 24 25 25 26 27 28 29 28 27 27 28 27 27 26 24 23 20 14 13 13 14 14 13 10
6 7 8 7 6 6 9 10 8 8 9 9 8 6 3 1 2 3 4 4 3 2 1 1 3 4 4 4 4 7 10 12 13 13 10 7 6 7 9 10 8 8 8 7 7 8 10 10 10 11 12 12 13 14 15 15 17 18 20 20 21 23 24 24 24 25 27 28 27 26 27 26 25 26 26 26 26 26 24 22 21 19 19 19 18
7 8 8 6 3 4 7 8 7 8 7 6 8 8 2 6 5 4 4 4 3 4 4 6 6 7 7 7 6 9 12 14 13 11 7 4 4 7 10 10 6 4 5 8 8 9 11 11 10 12 13 13 13 14 15 15 16 17 18 20 22 24 23 22 21 23 25 26 25 24 25 25 25 25 26 26 26 25 23 24 23 21 21 21 20
5 6 6 5 4 4 6 6 6 7 7 6 6 5 2 6 8 8 9 8 7 7 5 5 7 7 8 10 10 11 13 14 13 11 7 4 3 5 10 12 10 9 11 12 11 11 12 12 12 13 13 13 14 15 15 15 16 16 16 18 20 24 25 23 22 23 24 24 23 23 23 24 24 24 24 25 25 23 21 20 20 19 19 19 18
3 4 5 4 4 5 5 5 6 6 6 5 5 3 3 8 13 14 12 10 8 7 6 5 6 7 8 10 12 12 13 13 13 11 8 4 3 6 9 11 12 14 15 15 13 12 13 13 13 14 14 13 14 15 15 16 16 16 16 17 19 23 26 27 26 26 24 23 23 23 23 23 23 23 23 23 23 22 20 19 18 17 17 17 17
4 4 4 4 5 5 4 4 5 5 4 3 4 3 2 5 10 11 10 9 7 7 8 6 5 6 8 10 11 12 13 13 12 11 11 9 8 8 8 8 10 14 15 14 13 12 13 13 13 14 14 14 14 15 15 16 16 16 17 18 19 21 24 26 26 25 23 23 24 23 23 24 22 20 20 21 20 20 19 17 16 16 16 16 16
5 4 4 4 4 3 2 2 3 3 2 1 1 1 2 5 6 5 4 3 3 3 4 4 5 6 8 10 10 11 12 13 14 14 14 15 14 12 10 10 12 13 13 13 13 12 13 14 14 14 14 14 14 15 15 16 16 17 17 17 18 19 20 22 23 21 19 20 22 21 22 24 22 18 18 18 17 16 16 15 14 13 13 14 14
3 3 3 3 3 2 2 2 2 2 2 3 3 4 5 7 7 7 5 2 2 2 3 3 3 4 7 9 8 8 10 12 15 16 16 18 18 16 15 14 13 13 13 13 13 13 14 14 15 15 15 15 15 15 15 16 16 17 17 17 17 19 20 20 21 20 18 18 19 19 20 21 19 17 16 17 15 14 14 13 11 10 8 8 9
1 1 2 3 3 3 3 3 3 4 5 6 6 6 8 9 10 9 6 4 4 5 5 5 4 5 7 8 7 6 7 9 11 12 15 17 17 16 15 15 14 13 13 13 13 13 13 13 14 15 16 17 17 17 16 16 16 17 18 17 17 18 19 19 20 20 19 18 18 18 18 18 17 16 15 16 16 15 13 11 9 7 5 4 4
2 1 3 4 4 3 4 6 6 7 8 9 8 8 9 10 11 10 7 6 6 7 6 6 6 6 7 8 7 6 5 7 8 10 11 13 14 14 14 14 13 13 12 11 12 12 12 12 13 15 16 17 19 19 19 18 17 17 18 18 17 18 19 20 20 20 20 19 19 19 18 18 18 16 15 15 17 16 14 12 9 6 4 3 3
3 3 4 5 5 6 7 8 9 10 10 10 9 8 8 10 11 10 7 5 6 6 6 6 6 7 8 9 8 7 6 7 8 9 10 11 12 12 13 12 11 11 11 11 10 11 10 11 12 13 14 16 18 19 20 20 18 17 18 18 17 17 18 19 20 20 20 19 19 19 19 19 19 18 17 16 16 15 15 14 12 8 6 4 3
4 5 6 7 8 9 9 9 10 10 10 9 8 7 7 8 9 8 6 4 5 5 5 5 6 7 8 9 9 9 8 8 8 9 10 11 11 11 11 11 10 10 10 10 10 10 10 10 11 11 12 14 15 16 18 19 19 18 17 17 17 17 17 18 20 20 20 19 19 19 19 19 18 18 19 19 17 16 15 16 15 13 9 6 3
6 7 8 9 9 10 10 10 10 9 8 7 6 6 6 6 6 5 4 3 3 3 4 5 5 6 7 9 10 10 9 9 9 9 10 10 10 9 10 10 9 9 10 10 9 9 9 10 10 11 12 13 13 13 14 16 18 18 17 16 17 17 16 17 18 19 19 18 18 19 19 18 17 17 17 18 18 17 16 17 17 17 15 12 7
8 8 9 9 9 8 9 10 9 7 6 6 5 5 4 3 3 3 3 2 2 2 3 4 4 5 6 8 9 8 8 8 8 9 10 9 8 9 9 9 9 9 9 9 9 9 9 9 10 10 11 12 12 12 13 13 14 15 15 16 16 17 16 16 17 18 18 17 17 18 18 17 17 16 16 16 17 16 16 17 17 16 16 16 13
8 8 8 8 8 7 8 7 7 6 6 6 5 4 4 3 3 3 3 2 2 2 3 3 3 3 4 5 6 6 7 8 8 8 8 7 7 7 8 9 9 9 9 9 10 10 9 9 10 10 10 10 11 11 12 12 13 14 15 15 16 17 17 17 17 17 17 16 16 16 16 16 15 15 15 15 15 15 15 16 16 15 15 16 16
7 7 7 7 7 7 7 7 7 7 7 6 5 5 4 4 3 3 2 3 3 3 3 3 4 4 4 5 5 5 6 7 6 6 6 5 5 5 5 6 7 8 8 8 9 9 10 9 9 9 10 10 10 11 11 12 12 13 14 14 15 15 16 16 16 15 15 15 15 15 14 14 13 14 15 14 14 13 13 14 15 15 15 16 15
5 6 6 7 7 7 7 6 6 6 5 5 5 5 5 4 3 3 3 4 4 5 4 4 4 4 4 4 3 4 4 4 4 4 4 4 4 3 4 4 5 6 6 6 7 8 8 9 9 9 9 10 10 11 11 11 12 12 14 15 15 15 15 15 14 14 14 14 14 14 14 13 12 13 14 13 12 12 12 12 13 13 14 15 15
5 5 6 6 6 7 6 6 5 5 5 4 5 5 5 5 4 4 5 6 5 5 5 4 4 4 3 2 2 2 2 2 2 2 2 2 2 2 3 3 4 3 3 4 6 7 8 8 9 9 9 9 9 10 10 11 11 11 13 15 17 17 17 16 14 13 12 12 12 13 13 12 12 12 13 13 12 12 11 11 11 12 13 13 14
4 4 5 5 5 5 5 6 5 5 5 5 5 5 6 6 6 6 6 6 6 5 5 5 4 3 3 2 2 1 1 0 1 0 0 0 1 1 2 2 2 2 3 4 5 7 7 8 8 8 8 9 9 9 9 10 10 10 12 14 16 17 17 16 15 13 11 11 11 11 11 11 11 11 12 12 12 12 11 11 11 11 12 12 13
4 4 4 4 4 4 4 4 5 5 5 6 6 6 6 6 6 6 6 6 6 6 5 5 4 3 3 2 2 1 1 0 0 0 0 1 1 1 2 2 3 3 3 4 5 5 6 7 7 8 8 8 8 8 8 9 9 10 12 14 16 16 15 15 15 13 11 10 10 11 10 11 11 11 11 12 12 12 12 11 11 11 11 11 12
4 4 4 4 4 4 3 3 4 4 5 5 6 6 6 6 6 6 6 6 6 6 5 5 4 4 3 3 2 1 1 0 1 1 2 2 2 3 3 3 3 3 3 4 4 4 5 5 6 7 7 7 7 7 7 8 8 10 12 14 16 16 15 15 14 13 12 11 10 10 10 10 10 10 11 11 11 11 11 12 11 10 10 10 11
4 4 4 4 4 4 4 4 4 4 4 4 5 6 6 6 6 6 6 6 6 6 5 5 4 4 3 3 2 1 0 0 0 1 2 2 2 2 2 2 2 2 2 3 3 3 4 4 5 6 6 6 6 6 6 7 8 9 11 14 16 15 14 15 14 12 13 13 10 9 10 10 10 10 11 11 11 10 10 10 11 10 9 10 10
Wind_Direction
222 239 247 244 244 247 249 252 255 261 273 282 288 290 292 294 300 306 305 301 300 296 296 298 296 295 295 294 296 301 309 314 313 312 309 309 312 310 310 312 310 310 308 304 300 297 291 286 282 278 273 267 261 260 257 249 245 244 242 242 245 242 232 228 234 246 248 247 249 249 248 245 239 230 229 235 235 232 234 234 231 228 225 224 230
224 235 243 242 243 247 252 255 258 265 273 280 285 286 288 291 294 300 303 303 302 298 296 298 296 294 292 290 290 294 301 305 307 309 307 309 314 313 312 314 313 313 313 309 305 300 296 291 287 284 277 270 264 263 261 251 242 240 240 240 242 241 233 226 226 234 244 243 241 244 244 242 239 235 231 234 235 233 230 229 230 227 223 218 218
227 232 239 241 242 245 250 256 260 264 272 278 284 289 293 295 293 295 300 302 301 297 295 294 292 292 291 287 285 286 290 295 300 304 305 309 313 313 313 315 316 317 316 314 309 304 301 296 291 289 284 273 265 263 261 254 243 240 242 240 240 240 234 224 224 227 235 237 235 239 241 238 236 236 234 234 234 233 230 228 226 223 222 220 214
233 234 239 241 241 242 247 254 259 263 269 276 284 291 299 305 306 303 302 302 301 299 295 292 288 287 286 286 285 284 285 289 296 301 304 308 311 310 312 314 316 318 318 316 313 307 302 298 293 292 290 283 273 262 258 256 246 238 242 241 239 241 236 222 223 229 234 238 236 236 239 239 237 235 234 235 234 233 232 227 221 219 223 223 216
237 239 244 244 241 242 248 253 257 261 266 274 284 295 304 311 310 307 303 302 301 298 295 292 286 282 281 283 285 285 284 285 290 297 304 308 308 308 312 315 316 319 320 318 314 308 303 300 297 294 293 290 284 270 258 258 254 241 238 239 239 242 239 225 223 230 233 239 240 237 238 240 238 234 230 231 232 233 230 226 221 219 220 223 221
237 243 248 248 243 243 249 253 256 260 264 272 283 294 302 306 307 309 308 306 302 298 296 294 288 281 279 281 283 282 282 282 284 290 299 304 308 309 311 313 315 319 322 320 315 310 308 306 304 301 297 296 294 283 265 256 258 249 236 234 237 242 241 228 219 224 228 235 240 240 238 236 234 231 225 225 229 232 228 225 224 220 216 216 219
234 242 247 248 246 246 250 252 256 261 265 272 281 289 296 302 306 309 308 305 303 300 298 296 291 285 280 281 284 282 280 279 278 281 290 299 307 311 311 313 316 319 321 320 315 312 313 312 311 309 304 305 309 300 279 257 254 253 243 237 235 238 240 232 218 218 223 228 235 236 236 234 231 230 225 221 224 230 229 226 225 221 214 215 221
230 237 242 244 245 247 252 254 255 260 265 270 279 286 292 297 301 302 302 301 301 301 301 298 293 289 286 285 285 284 280 277 274 273 284 297 306 312 314 314 317 319 320 320 318 318 319 318 317 314 310 311 316 313 294 271 261 257 250 242 232 230 237 237 227 218 218 223 228 230 232 234 231 228 224 217 217 222 224 226 229 223 213 218 226
228 234 237 240 243 246 250 252 254 257 263 271 280 285 290 296 297 298 299 299 298 299 300 298 294 290 289 288 285 283 279 273 268 269 281 297 306 313 316 314 315 317 319 322 323 323 323 322 321 320 318 317 321 322 310 291 283 279 269 257 245 235 235 239 236 224 217 220 223 224 227 231 229 225 221 216 216 219 218 222 231 229 216 218 224
226 231 235 239 242 245 246 247 251 257 264 274 282 286 292 297 297 298 301 299 296 298 298 296 294 292 293 294 290 283 274 262 262 269 280 294 308 316 314 311 312 312 318 325 328 329 327 323 324 326 325 325 328 333 331 317 303 292 282 274 265 253 240 235 233 227 221 223 225 223 223 227 228 226 223 218 217 219 217 216 223 224 216 216 225
224 229 234 239 241 243 245 247 252 260 268 275 280 285 293 297 296 299 303 300 295 296 297 295 296 296 297 299 294 286 274 260 264 272 275 285 305 314 309 308 309 307 317 328 330 331 329 324 328 331 329 329 332 335 339 336 328 312 295 282 269 259 249 239 232 225 222 225 227 227 227 226 224 223 222 220 218 220 219 215 214 213 209 211 226
224 228 233 240 241 243 247 250 257 266 272 276 280 285 292 296 298 301 303 300 295 296 297 296 296 295 295 295 293 292 282 271 273 274 267 276 299 308 303 304 307 305 313 326 330 330 329 329 332 332 330 332 334 335 335 333 330 325 316 299 279 265 256 250 244 233 225 225 227 230 230 226 220 218 220 221 219 219 219 215 210 207 209 214 221
224 228 234 241 243 246 251 255 263 270 275 279 281 284 291 297 302 305 303 299 296 296 297 298 296 292 290 290 290 292 288 279 279 275 266 273 290 299 299 298 300 303 307 317 324 326 327 331 333 330 329 334 335 334 335 333 329 326 322 310 291 273 259 251 247 243 238 234 229 228 230 228 223 220 220 217 216 216 216 215 209 206 211 217 222
224 229 235 241 244 249 255 261 267 272 276 279 279 281 291 300 304 306 306 302 299 298 299 301 298 291 289 290 289 293 296 291 286 278 270 275 285 292 294 290 291 299 301 306 317 322 325 328 329 327 327 331 334 335 337 336 331 325 320 312 296 277 262 253 247 244 242 240 234 230 229 230 229 227 220 215 214 212 211 213 208 206 213 221 222
224 229 236 242 245 252 260 266 272 276 276 276 276 280 291 298 302 305 307 305 303 302 301 301 297 291 289 291 291 296 304 305 297 284 274 278 284 288 289 286 286 295 298 301 314 322 325 326 326 326 326 327 330 336 339 338 333 325 318 314 302 282 264 251 243 239 237 236 236 233 230 230 232 231 222 217 217 213 208 212 212 211 219 223 221
223 228 235 241 247 255 264 272 277 278 276 273 271 277 288 294 298 302 305 307 307 305 304 304 300 294 292 295 295 296 303 306 301 291 283 281 282 283 285 286 287 293 295 301 314 321 325 325 324 324 325 326 327 331 337 338 333 325 321 318 310 293 270 251 241 236 232 231 232 232 232 233 235 234 226 221 219 214 208 210 211 213 224 232 226
222 227 234 241 250 260 268 276 280 278 274 270 267 274 283 286 291 296 300 306 308 308 310 313 311 303 299 299 296 295 300 302 299 296 292 285 281 282 287 290 290 292 292 299 312 319 322 324 324 321 321 325 327 328 334 337 332 326 325 323 316 302 279 255 242 236 232 231 230 230 231 233 235 236 233 230 228 218 210 210 206 207 217 230 234
220 226 234 241 251 261 267 273 276 275 272 267 266 273 280 286 297 306 309 314 317 319 325 328 324 319 312 307 303 300 300 299 296 296 295 289 282 282 287 292 295 298 296 297 308 316 319 321 323 321 322 325 328 331 334 335 332 330 329 326 321 311 287 259 242 234 231 231 232 231 232 232 232 235 235 236 234 224 214 212 206 203 211 218 224
218 225 233 241 253 262 265 266 267 269 269 266 268 277 285 296 308 313 315 320 321 324 328 328 326 324 318 312 310 302 294 291 292 293 293 292 286 282 285 292 297 301 300 299 306 311 314 316 319 322 325 327 331 336 338 338 335 334 333 329 323 317 303 271 245 230 221 222 228 231 231 230 231 233 234 235 231 223 219 218 212 209 212 218 222
219 225 232 242 253 257 258 258 260 264 266 266 267 269 270 278 287 294 300 304 307 313 318 319 320 322 319 316 313 302 290 286 292 291 289 294 291 284 283 287 294 301 299 297 303 307 309 312 316 323 328 329 333 338 340 342 341 339 338 333 323 321 316 285 253 236 219 213 219 224 225 226 227 230 231 229 224 220 222 222 219 217 217 218 220
222 225 231 242 250 252 254 257 260 265 266 262 258 253 250 253 254 261 277 285 293 303 310 311 314 317 316 314 314 309 298 292 294 290 288 295 296 289 286 285 289 298 297 293 297 302 306 308 310 319 329 331 333 335 338 343 347 345 343 339 333 334 330 287 247 242 230 215 212 215 218 221 222 224 225 224 220 219 220 220 220 221 222 221 219
222 222 229 240 245 250 257 260 262 264 262 253 244 236 230 235 247 260 268 274 283 292 300 305 307 310 310 309 314 313 302 291 291 293 292 298 298 295 299 299 299 299 295 292 294 298 305 308 306 313 325 328 328 333 339 346 352 351 350 349 345 347 352 337 244 237 234 222 212 210 213 217 219 220 221 220 219 218 217 217 217 218 221 224 221
212 213 225 235 241 252 262 263 259 256 251 245 240 232 227 239 255 262 266 276 287 289 295 299 299 304 308 310 316 317 310 304 308 307 304 307 305 299 307 314 315 309 297 291 295 299 306 311 308 311 320 322 328 339 344 348 354 357 358 357 354 355 7 18 9 257 237 229 218 209 210 213 215 217 217 216 216 215 213 214 217 218 220 225 227
194 205 222 231 239 254 265 265 259 253 247 241 237 233 236 247 256 256 260 275 284 285 288 291 294 300 307 313 320 324 324 326 328 318 316 320 313 305 309 314 317 316 308 301 302 303 308 313 314 315 319 322 333 346 347 348 357 3 4 3 3 5 13 20 24 25 7 247 228 218 214 213 212 211 211 211 212 210 208 211 217 219 221 225 228
183 204 220 228 233 242 256 262 260 255 250 240 233 233 241 250 251 251 260 271 277 280 284 286 289 295 305 316 321 322 321 319 318 322 332 330 320 308 305 308 311 314 312 310 310 310 314 322 322 320 323 328 340 352 351 351 2 9 9 8 9 13 17 17 19 29 36 29 9 335 248 223 220 219 214 210 208 206 207 213 220 223 224 225 227
183 204 216 218 211 217 250 269 269 258 247 241 236 236 243 250 249 249 261 270 273 277 281 284 288 291 300 312 314 314 315 318 327 341 340 335 328 315 308 309 311 314 315 315 314 316 323 334 335 333 339 348 354 357 357 358 5 11 14 13 12 15 19 19 18 23 31 33 28 21 20 26 217 217 211 205 205 208 208 209 215 219 218 218 219
186 199 201 189 182 202 237 267 275 267 250 241 245 248 245 248 252 254 262 270 274 276 278 283 289 294 301 309 309 311 322 334 345 345 339 337 334 326 323 321 316 318 321 317 314 319 329 336 337 342 355 359 356 359 3 6 9 11 13 14 15 17 19 22 25 27 28 31 30 25 28 39 48 70 183 193 202 208 207 205 206 208 208 208 211
186 192 187 181 190 209 222 238 256 262 255 249 260 264 256 252 258 263 268 270 272 279 283 288 296 302 310 318 321 323 332 345 349 342 337 332 328 327 330 326 316 319 322 315 315 325 335 336 334 341 352 352 349 352 360 6 10 10 10 11 15 19 21 24 28 30 30 31 30 26 29 37 39 40 49 78 156 188 195 197 196 195 196 197 197
176 187 188 200 216 220 237 251 251 255 265 268 267 260 252 257 265 271 271 266 264 270 278 286 304 316 321 331 338 341 345 345 340 335 333 328 323 325 329 324 321 324 320 315 319 328 333 341 352 355 354 353 351 349 352 359 4 7 9 12 14 16 18 21 25 27 30 32 29 24 27 33 35 38 46 50 55 95 163 177 178 180 184 185 180
196 212 217 238 249 247 262 273 265 261 276 283 276 246 234 254 262 252 241 250 256 258 261 269 304 333 344 354 356 356 352 340 332 334 340 342 341 344 341 333 328 325 319 317 320 326 332 353 12 6 358 359 358 353 350 354 359 1 3 8 12 13 12 16 23 27 29 30 28 25 27 32 33 35 42 48 51 59 80 107 123 137 143 133 118
226 241 247 260 266 265 274 280 274 268 275 282 276 258 213 185 267 225 204 223 248 241 189 74 53 46 53 52 14 357 357 350 341 341 347 354 10 15 4 348 328 317 327 340 343 344 353 8 16 11 6 6 6 1 358 359 0 360 1 4 8 11 9 10 19 27 27 26 25 27 30 34 35 36 41 47 51 54 59 66 74 81 88 89 83
240 256 262 261 251 256 268 273 273 273 272 271 272 267 195 120 111 118 133 137 120 105 98 87 73 59 56 60 45 19 9 2 356 352 344 339 4 23 24 17 3 359 31 35 27 17 14 15 16 14 11 10 9 6 4 6 6 6 6 6 9 13 13 10 18 30 32 27 24 26 30 33 37 40 42 44 47 50 53 58 63 65 67 70 69
249 262 263 252 237 249 260 262 261 267 271 270 271 272 199 161 163 145 125 117 109 98 87 80 80 71 57 50 42 28 16 8 3 359 349 325 338 34 38 31 32 49 55 47 37 30 25 21 21 19 15 13 12 8 6 8 10 11 11 8 10 16 21 24 30 38 40 36 32 31 32 34 36 39 41 43 44 45 48 54 60 60 60 63 62
242 250 252 251 251 254 258 263 264 267 276 279 267 255 214 199 192 176 159 150 140 126 114 92 79 74 62 48 37 25 17 12 10 12 17 16 31 52 46 33 32 44 50 45 40 36 31 26 24 21 18 16 14 10 8 8 10 11 10 8 10 18 25 32 37 39 40 40 39 37 34 34 35 37 40 43 43 41 41 45 52 56 56 59 62
246 240 228 234 247 253 257 272 276 271 273 275 262 250 216 192 190 184 179 179 178 160 142 123 88 60 49 45 37 24 18 21 25 32 45 55 54 53 52 42 37 40 43 42 40 36 29 25 23 19 17 15 13 11 9 8 8 9 10 8 9 13 20 27 31 31 33 36 38 36 36 38 38 38 41 44 44 41 38 38 45 54 59 61 66
248 235 211 205 222 241 257 272 274 264 247 217 219 214 150 138 148 156 162 176 185 164 131 113 90 57 40 39 37 24 18 26 36 42 51 58 56 48 44 44 42 41 41 40 38 35 29 25 21 17 14 12 10 9 7 5 4 6 8 10 11 11 14 19 21 21 23 29 31 31 34 37 36 35 39 44 45 43 41 40 42 52 62 69 74
258 246 218 198 194 204 223 238 233 207 167 147 147 143 129 116 110 109 105 95 103 91 59 57 71 50 27 25 30 24 18 25 34 38 43 49 51 49 47 47 46 46 45 41 35 34 33 28 23 21 18 15 11 9 7 6 6 6 6 8 11 12 13 17 19 19 20 24 25 25 28 30 28 27 33 37 38 40 44 45 44 48 65 80 84
346 296 185 169 171 182 181 171 168 159 146 140 139 133 119 103 91 89 85 68 60 63 54 45 39 23 10 8 13 19 21 24 30 33 36 41 44 47 49 52 51 50 47 40 35 36 36 32 28 25 23 23 23 20 15 12 11 9 7 7 10 12 13 15 17 18 18 21 21 20 23 26 24 23 26 26 24 27 34 41 42 41 49 70 75
67 91 154 156 160 166 156 150 150 146 135 130 127 121 112 103 94 88 81 67 57 54 51 48 39 26 14 4 360 6 24 32 35 37 40 44 45 46 51 56 56 50 45 39 34 34 35 32 30 27 25 27 29 29 29 27 20 14 12 11 12 14 15 14 14 14 15 17 16 15 17 19 19 20 23 22 20 18 17 20 29 33 29 32 36
118 122 131 140 144 143 141 140 139 136 131 127 123 117 108 102 97 90 81 71 64 56 51 51 44 32 27 26 26 34 47 50 49 48 50 52 50 46 50 56 52 43 38 36 32 30 29 28 26 24 24 25 25 26 30 30 23 18 17 16 15 16 16 16 16 15 13 13 14 15 15 14 14 16 19 19 19 16 11 9 13 21 28 32 33
127 122 124 134 134 131 133 132 125 122 123 121 117 112 104 97 96 95 91 88 82 71 65 63 55 44 47 56 62 65 66 64 61 59 59 58 53 47 50 54 49 39 34 32 29 28 28 29 28 25 22 21 19 19 22 24 23 21 19 16 16 15 14 14 15 14 12 11 12 13 13 12 13 16 16 14 15 18 16 11 9 9 10 15 32
129 128 133 137 134 130 130 127 120 120 125 123 116 111 103 96 96 99 97 89 85 88 92 88 74 63 65 72 74 74 72 71 69 68 67 63 55 50 51 54 48 39 33 30 29 29 30 31 32 28 24 22 19 17 17 17 19 18 16 15 16 16 13 13 13 11 9 8 7 8 9 9 11 15 16 14 15 17 17 16 15 11 5 2 6
133 133 136 137 134 132 133 133 134 139 140 133 125 119 114 110 109 107 105 99 100 114 122 115 102 87 77 74 73 73 74 74 74 74 73 67 58 53 52 50 45 39 36 34 32 30 31 33 32 30 28 25 23 22 20 18 18 17 16 16 16 15 14 13 11 8 6 4 3 4 5 6 8 11 13 14 15 15 15 16 18 15 10 7 9
135 134 137 137 134 135 139 142 144 143 137 133 130 123 114 106 96 96 107 124 128 131 130 122 118 111 91 78 75 77 80 80 78 78 77 73 66 60 54 46 41 38 38 39 38 35 35 36 33 31 31 28 25 25 25 24 24 22 19 17 16 16 15 12 8 5 4 1 358 1 3 3 5 8 9 10 12 14 14 15 15 13 14 15 15
142 140 141 141 142 144 146 144 140 139 141 143 140 133 128 124 116 113 126 134 135 136 131 120 117 116 107 97 90 87 88 88 83 80 81 77 70 63 55 43 34 28 27 34 38 37 35 34 31 30 31 30 29 30 29 28 28 27 25 23 20 15 12 8 3 360 1 2 359 358 360 1 5 7 7 7 9 11 12 14 14 12 14 15 12
144 146 145 145 145 146 146 143 143 146 152 153 147 141 138 133 131 136 141 143 145 144 137 132 131 127 118 112 106 98 97 96 88 83 84 79 69 60 49 35 21 11 12 23 34 37 36 35 33 32 30 29 30 31 30 30 31 29 27 27 25 20 18 16 7 358 359 3 1 358 358 0 4 8 7 6 7 8 9 11 13 13 13 12 9
145 146 146 145 146 145 144 143 145 147 148 147 147 144 136 129 132 140 141 144 152 152 146 144 147 143 136 135 123 105 100 94 85 91 96 84 68 53 37 21 4 359 16 33 39 40 40 37 34 34 33 31 31 32 30 31 34 31 27 26 25 24 26 25 16 4 3 3 358 356 0 2 3 7 8 6 6 7 8 9 12 13 11 10 8
161 156 150 150 156 157 151 147 148 151 150 144 142 142 138 135 137 144 146 149 155 156 151 152 155 156 160 161 154 140 132 75 20 3 105 45 23 28 34 31 29 49 65 60 51 48 47 42 36 35 34 31 32 34 33 32 34 32 26 23 22 23 26 28 24 21 24 18 2 357 4 6 4 6 8 6 6 8 8 8 11 11 8 7 7
198 195 189 186 189 189 180 170 167 165 160 151 146 144 143 142 143 150 157 160 161 161 162 165 167 171 178 180 177 172 166 151 28 21 55 75 102 103 84 72 72 76 76 70 61 55 52 47 40 37 35 32 33 34 34 34 34 29 22 20 20 21 25 29 29 29 34 28 8 359 6 10 7 7 9 7 7 9 8 8 9 10 8 7 6
210 207 205 208 212 211 200 184 169 159 156 154 150 146 144 144 148 156 163 166 166 169 174 176 174 172 174 178 180 168 126 79 50 79 94 99 104 102 96 90 86 80 75 71 65 55 51 47 41 37 35 33 32 33 34 35 29 20 16 18 19 18 23 30 30 34 45 42 17 1 6 11 9 11 13 10 9 11 11 7 6 7 8 10 9
186 182 183 194 208 211 203 187 172 164 165 164 161 156 153 151 154 161 166 169 170 172 175 176 176 177 178 180 185 189 186 247 46 101 111 111 106 103 99 89 77 67 66 64 56 48 44 41 34 30 30 29 30 34 35 28 15 8 14 20 17 12 18 27 29 37 54 54 31 5 6 12 11 12 15 11 8 9 10 8 7 7 8 10 11